Regional Weather Roundup
Issued by NWS

Home | Current Version | Previous Version | Graphics & Text | Print | Product List | Glossary On
Versions: 1 2 3 4 5 6 7 8 9 10 11 12 13 14 15 16 17 18 19 20 21 22 23 24 25 26 27 28 29 30 31 32 33 34 35 36 37 38 39 40 41 42 43 44 45 46 47 48 49 50
000
ASUS43 KTOP 280359
RWRKS

WEATHER ROUNDUP FOR KANSAS
NATIONAL WEATHER SERVICE GOODLAND KS
1000 PM CST TUE JAN 27 2015

NOTE:  "FAIR" INDICATES FEW OR NO CLOUDS BELOW 12,000 FEET WITH NO
SIGNIFICANT WEATHER AND/OR OBSTRUCTIONS TO VISIBILITY.

KSZ001>006-013>018-027>032-041>047-280500-
NORTHWEST KANSAS

CITY           SKY/WX    TMP DP  RH WIND       PRES   REMARKS
GOODLAND       MOCLDY    53  28  38 S9        29.94F
HAYS           PTCLDY    54  28  37 SW8       29.93F
HILL CITY      PTCLDY    45  28  51 W3        29.92F
RUSSELL        FAIR      50  31  48 SW13      29.91S
$$

KSZ061>065-074>080-084>089-280500-
SOUTHWEST KANSAS

CITY           SKY/WX    TMP DP  RH WIND       PRES   REMARKS
DODGE CITY     PTCLDY    53  30  41 SW10      30.00S
ELKHART          N/A     50  32  50 SW10        N/A
GARDEN CITY    PTCLDY    48  33  56 S8        29.98F
LIBERAL        PTCLDY    46  28  49 SW10      30.03F
$$

KSZ066>073-081>083-090>101-280500-
SOUTHEAST KANSAS

CITY           SKY/WX    TMP DP  RH WIND       PRES   REMARKS
CHANUTE        CLEAR     47  33  58 SE10      30.04S
COFFEYVILLE    CLEAR     40  32  73 E5        30.04S
HUTCHINSON     PTCLDY    45  34  65 SE6       29.96F
MEDICINE LODGE   N/A     56  29  35 S8        29.98S
NEWTON         CLEAR     52  32  46 S10       29.98F
PARSONS        CLEAR     49  33  54 E3        30.05F
WICHITA INTL   CLEAR     52  35  52 S9        29.98S
WICHITA JABRA  CLEAR     53  35  50 S10       29.98S
WINFIELD       CLEAR     52  31  44 S9        30.01F
$$

KSZ007>012-019>026-033>040-048>060-102>105-280500-
NORTHEAST KANSAS

CITY           SKY/WX    TMP DP  RH WIND       PRES   REMARKS
CONCORDIA      CLEAR     47  34  60 SE12      29.92F
EMPORIA        CLEAR     44  33  65 SE9       30.00S
LAWRENCE       CLEAR     40  29  64 E10       30.06F WCI  33
MANHATTAN      CLEAR     48  35  60 E7        29.98F
OLATHE IND     CLEAR     44  31  60 E10       30.07F
OLATHE EXE     CLEAR     43  31  62 E9        30.06F
SALINA         CLEAR     55  37  50 S7        29.92S
TOPEKA BILLARD CLEAR     46  32  58 E10       30.04F
TOPEKA FORBES  CLEAR     46  31  55 SE10      30.03S
$$



USA.gov is the U.S. government's official web portal to all federal, state and local government web resources and services.